COSMOS 1275 DEB, 12719

Orbit data source: Space-Track

COSMOS 1275 DEB, 12719 is space debris in LEO originally from a launch on Thu, 04 Jun 1981 UTC launched from the Plesetsk Missile And Space Complex (PKMTR). Debris objects in space refer to the collection of defunct objects orbiting the Earth. Examples of debris include non-operational satellites, rocket bodies, and fragments generated from explosions, collisions, or faulty payload assembly.

Loading next visibility...
Identifier
12719, 1981-053BL
Orbit
LEO
Country
Flag of CISCIS
Related business
Manufacturer
Unknown
Mission
Spacecraft
Bus & Motor
Unknown
Mass
Unknown
Launch date (UTC)
1981-06-04 (45 years ago)
Launch vehicle
Unknown
Launch site
Plesetsk Missile And Space Complex (PKMTR)
Object type
Payload
Rocket body
Debris
Shape & HBR
Unknown shape, 0.2 m
Radar Cross Section
Medium (>0.1 m² and <1 m²)

Expand to show TLE details & history
Last TLE update: 8 hours ago

TLE from 8 hours ago
0 COSMOS 1275 DEB
1 12719U 81053BL  26104.72970475  .00000386  00000-0  27712-3 0  9990
2 12719  82.9567  88.7981 0021812 167.7933  11.2628 13.94517793260726
Epoch: 2026-04-14T17:30Z
TLE epoch observation values (Epoch: 2026-04-14T17:30:46.490Z)
Latitude
0.77701°
Longitude
163.10712°
Altitude
900.072 km
Speed
7.41 km/s
True Right ascension
17h 54m 48s
True Declination
0° 46' 21"
Sunlit
Object was in daylight at epoch
Visualization orbit readout
Latitude
Unknown
Longitude
Unknown
Altitude
Unknown
Speed
Unknown
Apparent Right ascension
Unknown
Apparent Declination
Unknown
Sunlit
N/A
Visualization observer readout
Local Sidereal Time
07:48:43
Azimuth
Unknown
Elevation
Unknown
Doppler factor
Unknown
Orbital elements
Apogee altitude
925.859 km
Perigee altitude
894.066 km
Semi-major axis
7,288.099 km
Eccentricity
0.00218
Inclination
82.9567°
RAAN
88.7981°
Arg. of periapsis
167.7933°
True anomaly
11.31175°
Mean anomaly
11.2628°
Eccentric anomaly
11.28726°
Mean motion
3.48836 °/min
Orbital period
103.2 mins
BSTAR
0.00027712
Loading maneuver chart data...
Computing Atmospheric mass density...
Loading historical data...
Loading historical data...
Loading historical data...
Loading historical data...
Loading historical data...
Loading historical data...
Loading historical data...

Documentation

Showing up to 5 results
|